[[{"header":{"parameterUnit":"m.s-1","parameterCategory":1,"la1":30.2991,"la2":30.254,"lo1":-89.0895,"lo2":-89.0444,"dy":0.0017,"dx":0.0017,"nx":28,"ny":28,"refTime":"2025-07-20T03:00:00:Z","depth":0,"parameterNumber":2,"parameterNumberName":"U-component_of_WINDS"},"data":[0,0,0,0,0,0,0,0,0,0,0,0,0,0,0,0,0,0,0,0,0,0,0,0,0,0,0,0,0,0,0,0,0,0,0,0,0,0,0,0,0,0,0,0,0,0,0,0,0,0,0,0,0,0,0,0,0,0,2.0676,2.0677,0,2.0776,2.0778,2.0779,2.0782,2.078,2.0779,2.0778,2.0888,2.0892,2.0896,0,0,0,0,0,0,0,0,0,0,0,0,0,2.0492,2.0495,2.0675,2.0677,2.0678,2.0776,2.0778,2.0779,2.0782,2.078,2.0779,2.0777,2.0886,2.0891,2.0896,0,0,0,0,0,0,0,0,0,0,0,0,0,2.058,2.0497,2.0675,2.0691,2.0693,2.0776,2.0778,2.0779,2.0782,2.078,2.0778,2.0777,2.0885,2.0891,2.0897,2.0972,0,0,2.0915,2.0918,0,0,0,0,0,0,0,0,2.0575,2.0587,2.0688,2.069,2.0693,2.0764,2.0753,2.0844,2.0783,2.0749,2.0778,2.0776,2.0849,2.0857,2.0881,2.0977,2.0982,2.0916,2.092,2.0922,2.0924,0,0,0,0,0,0,0,2.0569,2.0583,2.0716,2.0689,2.0692,2.0695,2.0706,2.077,2.0808,2.0752,2.0752,2.0764,2.085,2.0875,2.0883,2.0983,2.0916,2.0921,2.0925,2.0927,2.1148,2.115,0,0,0,0,0,0,2.0559,2.0578,2.0712,2.0719,2.0628,2.07,2.0712,2.0743,2.0807,2.0815,2.0765,2.0763,2.0865,2.0876,2.0887,2.098,2.0922,2.0928,2.0931,2.1146,2.1149,2.1151,0,0,0,0,0,0,2.0555,2.0571,2.0708,2.0648,2.0666,2.0705,2.0741,2.0746,2.0771,2.0817,2.0825,2.0783,2.0864,2.0879,2.0951,2.0984,2.0931,2.0936,2.1143,2.1147,2.115,2.1166,0,0,0,0,0,0,2.055,2.057,2.0597,2.0649,2.0669,2.0768,2.0743,2.075,2.0781,2.078,2.0836,2.0844,2.0864,2.0941,2.0957,2.0991,2.0941,2.1141,2.1145,2.1149,2.1162,2.1169,2.1175,0,0,0,0,0,2.0543,2.0598,2.0598,2.0614,2.0704,2.077,2.0782,2.0801,2.0784,2.0813,2.0843,2.0842,2.0978,2.0949,2.0966,2.1003,2.1139,2.1144,2.1148,2.116,2.1168,2.1175,0,0,0,0,0,0,2.0551,2.0605,2.0606,2.0679,2.0719,2.077,2.0807,2.0809,2.0857,2.0854,2.0879,2.0892,2.0963,2.0991,2.0957,2.108,2.1056,2.1065,2.1059,2.1067,2.1073,2.1065,2.0946,0,0,0,0,0,2.0561,2.0608,2.0654,2.0714,2.0734,2.0767,2.0797,2.0808,2.0852,2.087,2.0905,2.0949,2.1002,2.1036,2.1087,2.1167,2.118,2.1201,2.1207,2.1212,2.1219,2.1264,2.1274,2.1167,2.1167,2.1167,0,0,2.0582,2.0618,2.0646,2.0717,2.0749,2.08,2.0782,2.0835,2.0873,2.0879,2.0948,2.0976,2.1028,2.1104,2.1139,2.1129,2.1252,2.1218,2.1222,2.1226,2.127,2.128,2.1289,2.1171,2.117,2.1169,0,0,2.0647,2.0678,2.0732,2.0765,2.0814,2.0836,2.0849,2.09,2.0918,2.0988,2.0993,2.104,2.113,2.1167,2.1197,2.1277,2.1279,2.1293,2.1326,2.137,2.1378,2.1386,2.1415,2.1425,2.13,2.13,2.1301,0,2.0668,2.0741,2.076,2.0813,2.0845,2.0851,2.0907,2.0939,2.1003,2.1026,2.1013,2.1126,2.1161,2.1246,2.1266,2.129,2.1307,2.1287,2.1375,2.1383,2.139,2.1418,2.1429,2.1302,2.1302,2.1302,2.1301,0,2.0765,2.0816,2.0854,2.0914,2.095,2.1005,2.1034,2.1069,2.1078,2.1102,2.1174,2.1216,2.1276,2.1298,2.1308,2.1385,2.1377,2.1369,2.1346,2.1401,2.1428,2.1439,2.1304,2.1303,2.1303,2.1303,0,0,2.0836,2.0906,2.0919,2.0947,2.1003,2.1044,2.11,2.1157,2.1187,2.1232,2.1281,2.1357,2.135,2.1385,2.14,2.1438,2.15,2.1426,2.1428,2.1438,2.1588,2.1593,2.1605,2.1502,2.1504,2.1505,2.1584,0,2.0906,2.1003,2.1022,2.1108,2.1156,2.1163,2.1213,2.1253,2.1278,2.1324,2.1352,2.1406,2.1393,2.1414,2.1452,2.1484,2.153,2.1479,2.1549,2.1551,2.1534,2.1619,2.1624,2.1696,2.1595,2.1596,2.1598,0,2.1001,2.1046,2.1136,2.1186,2.1207,2.1251,2.1305,2.1349,2.1396,2.1412,2.1451,2.1461,2.1522,2.1497,2.1582,2.1546,2.1577,2.1597,2.16,2.1607,2.1577,2.1628,2.172,2.173,2.1614,2.1613,2.1612,0,2.1043,2.1128,2.1192,2.1216,2.1276,2.1307,2.1334,2.1379,2.1412,2.1461,2.1483,2.1539,2.1569,2.1613,2.164,2.1618,2.1723,2.17,2.1739,2.1738,2.176,2.1758,2.1857,2.178,2.178,2.178,2.178,0,2.112,2.1174,2.1212,2.1252,2.1314,2.1337,2.1399,2.1426,2.1466,2.1513,2.1524,2.1568,2.16,2.165,2.1671,2.1739,2.1753,2.1768,2.1773,2.1767,2.1765,2.1786,2.1782,2.1783,2.1782,2.1781,2.1781,0,2.1177,2.1205,2.1276,2.1327,2.1341,2.1385,2.143,2.147,2.1495,2.1554,2.1569,2.1609,2.1668,2.1698,2.1772,2.1787,2.1863,2.1865,2.1846,2.1848,2.1885,2.1881,2.2001,2.2018,2.193,2.1931,2.1932,0,2.1224,2.1266,2.1321,2.1352,2.138,2.143,2.1464,2.1489,2.1524,2.1582,2.1616,2.1675,2.1723,2.1817,2.1854,2.1911,2.1914,2.1953,2.1923,2.1916,2.1915,2.1912,2.1916,2.1958,2.1958,2.1959,2.196,0,2.1304,2.1315,2.1362,2.1415,2.1455,2.1498,2.1541,2.1566,2.1599,2.1639,2.1698,2.1735,2.181,2.1869,2.1929,2.1959,2.1966,2.1969,2.1981,2.1974,2.1961,2.1969,2.186,2.1966,2.1965,2.1965,2.1964,2.1964,2.1357,2.1395,2.144,2.1493,2.1528,2.1568,2.1608,2.1637,2.1686,2.1748,2.1761,2.1824,2.1872,2.1953,2.1985,2.2036,2.2029,2.2046,2.205,2.2054,2.2056,2.1954,2.2048,2.2047,2.2047,2.2047,2.2047,0,2.1437,2.1467,2.1515,2.1574,2.1616,2.1617,2.1665,2.1701,2.1755,2.1799,2.1846,2.1915,2.1972,2.2014,2.2073,2.2106,2.2111,2.2121,2.2118,2.2125,2.2059,2.2043,2.2116,2.2116,2.2116,2.2116,2.2116,2.2116,2.1483,2.1548,2.1565,2.1648,2.1678,2.1738,2.1765,2.1803,2.1838,2.1913,2.1961,2.1987,2.2031,2.2093,2.2147,2.2158,2.2179,2.2189,2.22,2.2137,2.213,2.2123,2.2107,2.2193,2.2193,2.2262,2.2262,2.2263]},{"header":{"parameterUnit":"m.s-1","parameterCategory":1,"la1":30.2991,"la2":30.254,"lo1":-89.0895,"lo2":-89.0444,"dy":0.0017,"dx":0.0017,"nx":28,"ny":28,"refTime":"2025-07-20T03:00:00:Z","depth":0,"parameterNumber":3,"parameterNumberName":"V-component_of_WINDS"},"data":[0,0,0,0,0,0,0,0,0,0,0,0,0,0,0,0,0,0,0,0,0,0,0,0,0,0,0,0,0,0,0,0,0,0,0,0,0,0,0,0,0,0,0,0,0,0,0,0,0,0,0,0,0,0,0,0,0,0,3.4539,3.454,0,3.4626,3.4627,3.4628,3.464,3.4639,3.4639,3.4638,3.4723,3.4726,3.4729,0,0,0,0,0,0,0,0,0,0,0,0,0,3.4375,3.4378,3.4539,3.454,3.4541,3.4626,3.4627,3.4628,3.464,3.4639,3.4638,3.4637,3.4722,3.4726,3.4729,0,0,0,0,0,0,0,0,0,0,0,0,0,3.4452,3.4379,3.4539,3.4557,3.456,3.4626,3.4627,3.4629,3.464,3.4639,3.4638,3.4637,3.4721,3.4725,3.473,3.4782,0,0,3.4744,3.4746,0,0,0,0,0,0,0,0,3.4448,3.4458,3.4553,3.4556,3.4559,3.4621,3.4601,3.468,3.4641,3.461,3.4638,3.4636,3.469,3.4697,3.4716,3.4786,3.479,3.4744,3.4747,3.4749,3.475,0,0,0,0,0,0,0,3.4443,3.4455,3.4573,3.4555,3.4558,3.4559,3.4568,3.4616,3.4655,3.4612,3.4613,3.4624,3.4691,3.4711,3.4718,3.4791,3.4744,3.4748,3.4751,3.4753,3.4902,3.4903,0,0,0,0,0,0,3.4435,3.445,3.4571,3.4576,3.4499,3.4563,3.4574,3.4602,3.4655,3.4662,3.4625,3.4624,3.4704,3.4713,3.4721,3.4782,3.4749,3.4753,3.4756,3.4901,3.4903,3.4904,0,0,0,0,0,0,3.4431,3.4445,3.4567,3.4513,3.4529,3.4567,3.4599,3.4605,3.4625,3.4664,3.4671,3.4639,3.4704,3.4715,3.4766,3.4785,3.4755,3.4759,3.49,3.4902,3.4903,3.4907,0,0,0,0,0,0,3.4426,3.4444,3.4467,3.4514,3.4532,3.4613,3.46,3.4607,3.4633,3.4633,3.4679,3.4686,3.4704,3.4759,3.477,3.4791,3.4763,3.4898,3.49,3.4903,3.4905,3.4909,3.4912,0,0,0,0,0,3.442,3.4464,3.4468,3.4482,3.4561,3.4614,3.4624,3.4645,3.4635,3.4656,3.468,3.4684,3.4781,3.4764,3.4777,3.4799,3.4897,3.49,3.4902,3.4904,3.4908,3.4912,0,0,0,0,0,0,3.4419,3.4471,3.4475,3.4537,3.4571,3.4616,3.4644,3.465,3.4687,3.4685,3.4708,3.4718,3.4767,3.4788,3.4768,3.485,3.4838,3.4843,3.4834,3.4839,3.4842,3.4835,3.4767,0,0,0,0,0,3.4425,3.4466,3.4509,3.4558,3.4575,3.4606,3.4631,3.4643,3.4679,3.4693,3.4722,3.4755,3.4792,3.4817,3.4854,3.4908,3.4916,3.4929,3.4932,3.4935,3.4939,3.4965,3.497,3.4913,3.4913,3.4913,0,0,3.444,3.4473,3.4498,3.4559,3.4587,3.4625,3.4619,3.4661,3.4689,3.47,3.4749,3.477,3.4808,3.486,3.4884,3.4879,3.4956,3.4938,3.494,3.4943,3.4968,3.4973,3.4978,3.4915,3.4915,3.4914,0,0,3.4485,3.4517,3.4559,3.4586,3.4628,3.4648,3.4658,3.4701,3.4716,3.4766,3.4773,3.4805,3.4871,3.4896,3.4918,3.4966,3.497,3.4978,3.4994,3.5019,3.5023,3.5027,3.5042,3.5047,3.4982,3.4982,3.4982,0,3.4498,3.4559,3.458,3.4621,3.4645,3.4656,3.4697,3.4722,3.4773,3.4789,3.4783,3.4861,3.4888,3.4944,3.4955,3.4973,3.4982,3.4973,3.5021,3.5026,3.503,3.5043,3.5049,3.4982,3.4982,3.4982,3.4982,0,3.4569,3.4611,3.4639,3.4688,3.4716,3.4757,3.4781,3.4806,3.4815,3.4834,3.4882,3.4913,3.4955,3.4969,3.4979,3.5024,3.502,3.5017,3.5006,3.5035,3.5048,3.5054,3.4983,3.4983,3.4983,3.4983,0,0,3.462,3.4676,3.4686,3.4706,3.4751,3.4782,3.4821,3.4862,3.4881,3.4915,3.4945,3.4998,3.4994,3.5019,3.503,3.5052,3.5084,3.5046,3.5047,3.505,3.5132,3.5133,3.5139,3.5086,3.5087,3.5088,3.5128,0,3.4668,3.474,3.4757,3.4817,3.4853,3.486,3.4894,3.4923,3.494,3.4971,3.4989,3.5025,3.502,3.5034,3.5055,3.5076,3.5101,3.5073,3.5113,3.5114,3.5102,3.5146,3.5148,3.5185,3.5134,3.5135,3.5135,0,3.4736,3.477,3.4833,3.4868,3.4884,3.4914,3.495,3.498,3.5011,3.5022,3.5047,3.5055,3.5092,3.5078,3.5127,3.5108,3.5124,3.5136,3.5138,3.5142,3.5126,3.5149,3.5197,3.5202,3.5144,3.5143,3.5143,0,3.4762,3.4824,3.4868,3.4886,3.4929,3.4949,3.4967,3.4998,3.5019,3.505,3.5063,3.5098,3.5116,3.5141,3.5157,3.5146,3.5203,3.5192,3.5211,3.521,3.5223,3.5222,3.5272,3.5236,3.5236,3.5235,3.5235,0,3.4814,3.4852,3.488,3.4908,3.4948,3.4966,3.5005,3.5023,3.5049,3.5078,3.5086,3.5112,3.5133,3.516,3.5173,3.5209,3.5218,3.5226,3.5228,3.5225,3.5223,3.5235,3.5233,3.5237,3.5237,3.5236,3.5236,0,3.4851,3.4872,3.492,3.4956,3.4965,3.4993,3.5023,3.5047,3.5064,3.5099,3.5108,3.5133,3.5166,3.5184,3.5226,3.5234,3.5274,3.5276,3.5264,3.5265,3.5282,3.5279,3.5341,3.5348,3.5308,3.5309,3.5309,0,3.4883,3.4911,3.4949,3.4969,3.4987,3.502,3.5041,3.5058,3.5079,3.5114,3.5134,3.5167,3.5195,3.5246,3.5267,3.5297,3.5299,3.5318,3.5304,3.5297,3.5296,3.5294,3.5295,3.532,3.5321,3.5321,3.5321,0,3.4935,3.4942,3.4974,3.5007,3.5032,3.5059,3.5086,3.5101,3.5122,3.5145,3.5178,3.52,3.524,3.5272,3.5303,3.532,3.5323,3.5325,3.5331,3.5327,3.5318,3.532,3.5269,3.5324,3.5324,3.5324,3.5324,3.5323,3.4968,3.4992,3.5021,3.5054,3.5075,3.5099,3.5123,3.5141,3.5169,3.5204,3.5212,3.5246,3.5272,3.5314,3.5331,3.5356,3.5353,3.5361,3.5363,3.5365,3.5364,3.5314,3.5362,3.5362,3.5362,3.5362,3.5362,0,3.5019,3.5037,3.5067,3.5103,3.5127,3.5128,3.5156,3.5176,3.5207,3.5231,3.5257,3.5293,3.5322,3.5344,3.5373,3.5389,3.5391,3.5396,3.5394,3.5397,3.5367,3.5359,3.5394,3.5394,3.5394,3.5393,3.5393,3.5393,3.5048,3.5087,3.5097,3.5145,3.5163,3.5197,3.5212,3.5233,3.5251,3.5292,3.5316,3.533,3.5351,3.5382,3.5407,3.5413,3.5422,3.5427,3.5432,3.5403,3.54,3.5397,3.5388,3.5429,3.5429,3.5459,3.546,3.546]}]]